Time,TemperatureF,DewpointF,PressureIn,WindDirection,WindDirectionDegrees,WindSpeedMPH,WindSpeedGustMPH,Humidity,HourlyPrecipIn,Conditions,Clouds,dailyrainin,SoftwareType,DateUTC
2013-06-18 00:07:00,0.0,0.0,0.00,SSE,157,2.0,4.3,0,0.00,,,-99.99,Homeseer,2013-06-18 04:07:00,
2013-06-18 00:17:00,0.0,0.0,0.00,North,0,3.4,3.4,0,0.00,,,-99.99,Homeseer,2013-06-18 04:17:00,
2013-06-18 00:27:00,0.0,0.0,0.00,SSE,157,0.0,3.1,0,0.00,,,-99.99,Homeseer,2013-06-18 04:27:00,
2013-06-18 00:37:00,0.0,0.0,0.00,North,0,0.9,2.9,0,0.00,,,-99.99,Homeseer,2013-06-18 04:37:00,
2013-06-18 00:47:00,83.3,70.3,0.00,South,180,2.9,2.9,58,0.00,,,-99.99,Homeseer,2013-06-18 04:47:00,
2013-06-18 00:57:00,83.3,70.3,0.00,South,180,1.3,0.0,58,0.00,,,-99.99,Homeseer,2013-06-18 04:57:00,
2013-06-18 01:07:00,83.3,70.3,0.00,SSE,157,1.1,1.1,58,0.00,,,-99.99,Homeseer,2013-06-18 05:07:00,
2013-06-18 01:17:00,83.3,70.3,0.00,South,180,1.1,1.1,58,0.00,,,-99.99,Homeseer,2013-06-18 05:17:00,
2013-06-18 01:27:00,83.3,70.3,0.00,South,180,1.6,1.6,58,0.00,,,-99.99,Homeseer,2013-06-18 05:27:00,
2013-06-18 01:37:00,83.3,70.3,0.00,North,0,1.1,1.1,58,0.00,,,-99.99,Homeseer,2013-06-18 05:37:00,
2013-06-18 01:47:00,0.0,0.0,0.00,North,0,2.5,0.0,0,0.00,,,-99.99,Homeseer,2013-06-18 05:47:00,
2013-06-18 01:57:00,0.0,0.0,0.00,SE,135,0.9,1.3,0,0.00,,,-99.99,Homeseer,2013-06-18 05:57:00,
2013-06-18 02:07:00,0.0,0.0,0.00,SSE,157,1.6,2.7,0,0.00,,,-99.99,Homeseer,2013-06-18 06:07:00,
2013-06-18 02:17:00,0.0,0.0,0.00,North,0,0.9,1.6,0,0.00,,,-99.99,Homeseer,2013-06-18 06:17:00,
2013-06-18 02:27:00,0.0,0.0,0.00,South,180,1.6,3.1,0,0.00,,,-99.99,Homeseer,2013-06-18 06:27:00,
2013-06-18 02:37:00,0.0,0.0,0.00,SSE,157,2.0,2.9,0,0.00,,,-99.99,Homeseer,2013-06-18 06:37:00,
2013-06-18 02:47:00,0.0,0.0,0.00,North,0,1.1,0.0,0,0.00,,,-99.99,Homeseer,2013-06-18 06:47:00,
2013-06-18 02:57:00,0.0,0.0,0.00,SE,135,0.9,0.0,0,0.00,,,-99.99,Homeseer,2013-06-18 06:57:00,
2013-06-18 03:07:00,0.0,0.0,0.00,South,180,2.2,2.2,0,0.00,,,-99.99,Homeseer,2013-06-18 07:07:00,
2013-06-18 03:17:00,0.0,0.0,0.00,North,0,0.9,0.0,0,0.00,,,-99.99,Homeseer,2013-06-18 07:17:00,
2013-06-18 03:27:00,0.0,0.0,0.00,SE,135,0.0,1.6,0,0.00,,,-99.99,Homeseer,2013-06-18 07:27:00,
2013-06-18 03:37:00,0.0,0.0,0.00,South,180,1.1,1.1,0,0.00,,,-99.99,Homeseer,2013-06-18 07:37:00,
2013-06-18 03:47:00,0.0,0.0,0.00,SSE,157,0.0,0.0,0,0.00,,,-99.99,Homeseer,2013-06-18 07:47:00,
2013-06-18 03:57:00,0.0,0.0,0.00,North,0,0.9,2.7,0,0.00,,,-99.99,Homeseer,2013-06-18 07:57:00,
2013-06-18 04:07:00,0.0,0.0,0.00,South,180,2.5,2.5,0,0.00,,,-99.99,Homeseer,2013-06-18 08:07:00,
2013-06-18 04:17:00,0.0,0.0,0.00,North,0,1.3,3.6,0,0.00,,,-99.99,Homeseer,2013-06-18 08:17:00,
2013-06-18 04:27:00,0.0,0.0,0.00,North,0,0.0,2.7,0,0.00,,,-99.99,Homeseer,2013-06-18 08:27:00,
2013-06-18 04:37:00,0.0,0.0,0.00,SSE,157,2.5,3.8,0,0.00,,,-99.99,Homeseer,2013-06-18 08:37:00,
2013-06-18 04:47:00,0.0,0.0,0.00,WSW,247,2.2,4.7,0,0.00,,,-99.99,Homeseer,2013-06-18 08:47:00,
2013-06-18 04:57:00,0.0,0.0,0.00,WSW,247,4.3,5.4,0,0.00,,,-99.99,Homeseer,2013-06-18 08:57:00,
2013-06-18 05:07:00,0.0,0.0,0.00,South,180,2.2,2.2,0,0.00,,,-99.99,Homeseer,2013-06-18 09:07:00,
2013-06-18 05:17:00,0.0,0.0,0.00,North,0,1.3,1.6,0,0.00,,,-99.99,Homeseer,2013-06-18 09:17:00,
2013-06-18 05:27:00,81.9,71.3,0.00,North,0,3.1,3.1,64,0.00,,,-99.99,Homeseer,2013-06-18 09:27:00,
2013-06-18 05:37:00,81.9,71.3,0.00,SSE,157,2.7,2.7,64,0.00,,,-99.99,Homeseer,2013-06-18 09:37:00,
2013-06-18 05:47:00,81.9,71.3,0.00,South,180,3.6,3.6,64,0.00,,,-99.99,Homeseer,2013-06-18 09:47:00,
2013-06-18 05:57:00,81.9,71.3,0.00,South,180,2.9,2.9,64,0.00,,,-99.99,Homeseer,2013-06-18 09:57:00,
2013-06-18 06:07:00,81.9,71.3,0.00,South,180,1.3,1.3,64,0.00,,,-99.99,Homeseer,2013-06-18 10:07:00,
2013-06-18 06:17:00,81.7,71.1,0.00,South,180,2.2,2.2,64,0.00,,,-99.99,Homeseer,2013-06-18 10:17:00,
2013-06-18 06:27:00,81.9,71.3,0.00,ENE,67,2.0,2.0,64,0.00,,,-99.99,Homeseer,2013-06-18 10:27:00,
2013-06-18 06:37:00,81.7,70.7,0.00,SW,225,1.6,1.6,63,0.00,,,-99.99,Homeseer,2013-06-18 10:37:00,
2013-06-18 06:47:00,81.9,71.3,0.00,North,0,2.2,3.8,64,0.00,,,-99.99,Homeseer,2013-06-18 10:47:00,
2013-06-18 06:57:00,82.2,71.5,0.00,SSE,157,2.0,2.0,64,0.00,,,-99.99,Homeseer,2013-06-18 10:57:00,
2013-06-18 07:07:00,82.8,71.7,0.00,SSE,157,2.0,2.0,63,0.00,,,-99.99,Homeseer,2013-06-18 11:07:00,
2013-06-18 07:17:00,83.1,71.6,0.00,North,0,1.3,2.0,62,0.00,,,-99.99,Homeseer,2013-06-18 11:17:00,
2013-06-18 07:27:00,82.9,71.1,0.00,WNW,297,1.3,0.0,61,0.00,,,-99.99,Homeseer,2013-06-18 11:27:00,
2013-06-18 07:37:00,82.9,71.1,0.00,SSE,157,2.2,3.1,61,0.00,,,-99.99,Homeseer,2013-06-18 11:37:00,
2013-06-18 07:47:00,82.9,71.1,0.00,North,0,2.5,2.5,61,0.00,,,-99.99,Homeseer,2013-06-18 11:47:00,
2013-06-18 07:57:00,82.9,71.1,0.00,ESE,112,3.6,3.6,61,0.00,,,-99.99,Homeseer,2013-06-18 11:57:00,
2013-06-18 08:07:00,82.9,71.1,0.00,North,0,3.8,3.8,61,0.00,,,-99.99,Homeseer,2013-06-18 12:07:00,
2013-06-18 08:17:00,82.9,71.1,0.00,North,0,2.0,2.0,61,0.00,,,-99.99,Homeseer,2013-06-18 12:17:00,
2013-06-18 08:27:00,82.9,71.1,0.00,South,180,3.8,4.3,61,0.00,,,-99.99,Homeseer,2013-06-18 12:27:00,
2013-06-18 08:37:00,0.0,0.0,0.00,South,180,3.8,4.3,0,0.00,,,-99.99,Homeseer,2013-06-18 12:37:00,
2013-06-18 08:47:00,0.0,0.0,0.00,South,180,3.8,4.3,0,0.00,,,-99.99,Homeseer,2013-06-18 12:47:00,
2013-06-18 08:57:00,0.0,0.0,0.00,North,0,1.3,1.6,0,0.00,,,-99.99,Homeseer,2013-06-18 12:57:00,
2013-06-18 09:07:00,0.0,0.0,0.00,North,0,2.0,2.7,0,0.00,,,-99.99,Homeseer,2013-06-18 13:07:00,
2013-06-18 09:17:00,88.3,69.5,0.00,North,0,2.0,2.0,46,0.00,,,-99.99,Homeseer,2013-06-18 13:17:00,
2013-06-18 09:27:00,88.3,69.5,0.00,North,0,3.8,3.8,46,0.00,,,-99.99,Homeseer,2013-06-18 13:27:00,
2013-06-18 09:37:00,88.7,69.4,0.00,WSW,247,2.7,3.8,45,0.00,,,-99.99,Homeseer,2013-06-18 13:37:00,
2013-06-18 09:47:00,88.7,69.4,0.00,North,0,2.7,5.8,45,0.00,,,-99.99,Homeseer,2013-06-18 13:47:00,
2013-06-18 09:57:00,88.7,69.4,0.00,South,180,3.6,3.6,45,0.00,,,-99.99,Homeseer,2013-06-18 13:57:00,
2013-06-18 10:07:00,88.7,69.4,0.00,SSE,157,2.5,3.1,45,0.00,,,-99.99,Homeseer,2013-06-18 14:07:00,
2013-06-18 10:17:00,88.7,69.4,0.00,North,0,3.1,3.1,45,0.00,,,-99.99,Homeseer,2013-06-18 14:17:00,
2013-06-18 10:27:00,90.0,68.9,0.00,South,180,2.7,2.7,42,0.00,,,-99.99,Homeseer,2013-06-18 14:27:00,
2013-06-18 10:37:00,90.0,68.9,0.00,SSE,157,2.7,2.7,42,0.00,,,-99.99,Homeseer,2013-06-18 14:37:00,
2013-06-18 10:47:00,90.0,68.9,0.00,South,180,2.9,5.8,42,0.00,,,-99.99,Homeseer,2013-06-18 14:47:00,
2013-06-18 10:57:00,90.0,68.9,0.00,North,0,0.9,0.0,42,0.00,,,-99.99,Homeseer,2013-06-18 14:57:00,
2013-06-18 11:07:00,90.0,68.9,0.00,North,0,0.9,0.0,42,0.00,,,-99.99,Homeseer,2013-06-18 15:07:00,
2013-06-18 11:17:00,90.9,67.5,0.00,North,0,1.3,3.6,38,0.00,,,-99.99,Homeseer,2013-06-18 15:17:00,
2013-06-18 11:27:00,90.9,67.5,0.00,North,0,2.7,3.4,38,0.00,,,-99.99,Homeseer,2013-06-18 15:27:00,
2013-06-18 11:37:00,91.2,67.1,0.00,South,180,2.7,2.7,37,0.00,,,-99.99,Homeseer,2013-06-18 15:37:00,
2013-06-18 11:47:00,91.2,67.1,0.00,South,180,2.9,2.9,37,0.00,,,-99.99,Homeseer,2013-06-18 15:47:00,
2013-06-18 11:57:00,90.9,65.0,0.00,South,180,2.9,2.9,34,0.00,,,-99.99,Homeseer,2013-06-18 15:57:00,
2013-06-18 12:07:00,90.9,65.0,0.00,WSW,247,4.3,7.4,34,0.00,,,-99.99,Homeseer,2013-06-18 16:07:00,
2013-06-18 12:17:00,90.9,65.0,0.00,SSE,157,2.7,2.7,34,0.00,,,-99.99,Homeseer,2013-06-18 16:17:00,
2013-06-18 12:27:00,90.9,65.0,0.00,SSE,157,2.7,2.7,34,0.00,,,-99.99,Homeseer,2013-06-18 16:27:00,
2013-06-18 12:37:00,90.9,65.0,0.00,SSE,157,2.7,2.7,34,0.00,,,-99.99,Homeseer,2013-06-18 16:37:00,
2013-06-18 12:47:00,90.9,65.0,0.00,South,180,4.0,4.0,34,0.00,,,-99.99,Homeseer,2013-06-18 16:47:00,
2013-06-18 12:57:00,92.5,64.3,0.00,SSE,157,2.5,3.4,31,0.00,,,-99.99,Homeseer,2013-06-18 16:57:00,
2013-06-18 13:07:00,92.5,65.0,0.00,ESE,112,1.6,1.6,32,0.00,,,-99.99,Homeseer,2013-06-18 17:07:00,
2013-06-18 13:17:00,92.5,65.0,0.00,ESE,112,1.6,1.6,32,0.00,,,-99.99,Homeseer,2013-06-18 17:17:00,
2013-06-18 13:27:00,92.5,65.0,0.00,SSE,157,3.1,4.3,32,0.00,,,-99.99,Homeseer,2013-06-18 17:27:00,
2013-06-18 13:37:00,93.9,65.5,0.00,South,180,3.4,3.4,31,0.00,,,-99.99,Homeseer,2013-06-18 17:37:00,
2013-06-18 13:47:00,93.6,65.2,0.00,South,180,3.4,3.4,31,0.00,,,-99.99,Homeseer,2013-06-18 17:47:00,
2013-06-18 13:57:00,93.4,64.3,0.00,North,0,2.2,2.7,30,0.00,,,-99.99,Homeseer,2013-06-18 17:57:00,
2013-06-18 14:07:00,92.5,64.3,0.00,North,0,5.6,8.5,31,0.00,,,-99.99,Homeseer,2013-06-18 18:07:00,
2013-06-18 14:17:00,93.6,65.2,0.00,North,0,4.0,4.0,31,0.00,,,-99.99,Homeseer,2013-06-18 18:17:00,
2013-06-18 14:27:00,91.9,64.5,0.00,SSE,157,6.0,6.5,32,0.00,,,-99.99,Homeseer,2013-06-18 18:27:00,
2013-06-18 14:37:00,92.3,64.1,0.00,South,180,4.7,4.7,31,0.00,,,-99.99,Homeseer,2013-06-18 18:37:00,
2013-06-18 14:47:00,92.3,64.1,0.00,SE,135,3.8,3.8,31,0.00,,,-99.99,Homeseer,2013-06-18 18:47:00,
2013-06-18 14:57:00,93.0,65.4,0.00,North,0,4.0,5.6,32,0.00,,,-99.99,Homeseer,2013-06-18 18:57:00,
2013-06-18 15:07:00,93.2,64.9,0.00,North,0,3.6,3.6,31,0.00,,,-99.99,Homeseer,2013-06-18 19:07:00,
2013-06-18 15:17:00,92.5,65.7,0.00,South,180,3.8,3.8,33,0.00,,,-99.99,Homeseer,2013-06-18 19:17:00,
2013-06-18 15:27:00,92.8,65.9,0.00,North,0,5.6,5.6,33,0.00,,,-99.99,Homeseer,2013-06-18 19:27:00,
2013-06-18 15:37:00,92.8,65.2,0.00,South,180,4.0,4.0,32,0.00,,,-99.99,Homeseer,2013-06-18 19:37:00,
2013-06-18 15:47:00,93.0,66.1,0.00,SSE,157,1.3,1.3,33,0.00,,,-99.99,Homeseer,2013-06-18 19:47:00,
2013-06-18 15:57:00,93.0,66.1,0.00,South,180,4.3,4.3,33,0.00,,,-99.99,Homeseer,2013-06-18 19:57:00,
2013-06-18 16:07:00,93.0,66.1,0.00,WSW,247,2.5,3.1,33,0.00,,,-99.99,Homeseer,2013-06-18 20:07:00,
2013-06-18 16:17:00,93.0,66.1,0.00,South,180,3.4,7.2,33,0.00,,,-99.99,Homeseer,2013-06-18 20:17:00,
2013-06-18 16:27:00,91.4,64.7,0.00,North,0,3.6,3.6,33,0.00,,,-99.99,Homeseer,2013-06-18 20:27:00,
2013-06-18 16:37:00,91.4,64.7,0.00,North,0,3.4,7.2,33,0.00,,,-99.99,Homeseer,2013-06-18 20:37:00,
2013-06-18 16:47:00,91.4,64.7,0.00,South,180,3.4,3.4,33,0.00,,,-99.99,Homeseer,2013-06-18 20:47:00,
2013-06-18 16:57:00,91.4,64.7,0.00,South,180,3.4,3.4,33,0.00,,,-99.99,Homeseer,2013-06-18 20:57:00,
2013-06-18 17:07:00,91.4,64.7,0.00,South,180,3.4,3.4,33,0.00,,,-99.99,Homeseer,2013-06-18 21:07:00,
2013-06-18 17:17:00,91.4,64.7,0.00,South,180,3.4,3.4,33,0.00,,,-99.99,Homeseer,2013-06-18 21:17:00,
2013-06-18 17:27:00,0.0,0.0,0.00,NNE,22,5.6,5.6,0,0.00,,,-99.99,Homeseer,2013-06-18 21:27:00,
2013-06-18 17:37:00,0.0,0.0,0.00,North,0,4.3,6.3,0,0.00,,,-99.99,Homeseer,2013-06-18 21:37:00,
2013-06-18 17:47:00,0.0,0.0,0.00,North,0,3.8,3.8,0,0.00,,,-99.99,Homeseer,2013-06-18 21:47:00,
2013-06-18 17:57:00,91.2,65.9,0.00,WNW,297,2.0,4.3,35,0.00,,,-99.99,Homeseer,2013-06-18 21:57:00,
2013-06-18 18:07:00,91.2,65.9,0.00,South,180,1.6,2.5,35,0.00,,,-99.99,Homeseer,2013-06-18 22:07:00,
2013-06-18 18:17:00,91.2,65.9,0.00,SSE,157,3.1,3.6,35,0.00,,,-99.99,Homeseer,2013-06-18 22:17:00,
2013-06-18 18:27:00,91.2,65.9,0.00,SSE,157,1.6,3.1,35,0.00,,,-99.99,Homeseer,2013-06-18 22:27:00,
2013-06-18 18:37:00,91.2,65.9,0.00,North,0,2.5,2.5,35,0.00,,,-99.99,Homeseer,2013-06-18 22:37:00,
2013-06-18 18:47:00,91.2,65.9,0.00,South,180,3.6,4.7,35,0.00,,,-99.99,Homeseer,2013-06-18 22:47:00,
2013-06-18 18:57:00,0.0,0.0,0.00,ESE,112,2.9,2.9,0,0.00,,,-99.99,Homeseer,2013-06-18 22:57:00,
2013-06-18 19:07:00,0.0,0.0,0.00,South,180,3.1,3.6,0,0.00,,,-99.99,Homeseer,2013-06-18 23:07:00,
2013-06-18 19:17:00,89.1,66.5,0.00,South,180,2.9,3.6,39,0.00,,,-99.99,Homeseer,2013-06-18 23:17:00,
2013-06-18 19:27:00,88.2,66.3,0.00,WSW,247,2.7,2.7,40,0.00,,,-99.99,Homeseer,2013-06-18 23:27:00,
2013-06-18 19:37:00,87.6,66.3,0.00,North,0,3.8,4.0,41,0.00,,,-99.99,Homeseer,2013-06-18 23:37:00,
2013-06-18 19:47:00,87.3,65.5,0.00,North,0,3.6,3.6,40,0.00,,,-99.99,Homeseer,2013-06-18 23:47:00,
2013-06-18 19:57:00,86.9,65.7,0.00,SSE,157,2.5,2.5,41,0.00,,,-99.99,Homeseer,2013-06-18 23:57:00,
2013-06-18 20:07:00,86.7,66.1,0.00,North,0,1.3,4.9,42,0.00,,,-99.99,Homeseer,2013-06-19 00:07:00,
2013-06-18 20:17:00,86.4,65.8,0.00,South,180,3.1,4.5,42,0.00,,,-99.99,Homeseer,2013-06-19 00:17:00,
2013-06-18 20:27:00,86.2,66.1,0.00,WSW,247,3.4,4.0,43,0.00,,,-99.99,Homeseer,2013-06-19 00:27:00,
2013-06-18 20:37:00,85.8,66.3,0.00,WNW,297,2.5,3.4,44,0.00,,,-99.99,Homeseer,2013-06-19 00:37:00,
2013-06-18 20:47:00,85.6,67.1,0.00,SSE,157,2.0,8.1,46,0.00,,,-99.99,Homeseer,2013-06-19 00:47:00,
2013-06-18 20:57:00,85.5,67.5,0.00,North,0,2.2,3.4,47,0.00,,,-99.99,Homeseer,2013-06-19 00:57:00,
2013-06-18 21:07:00,85.3,67.8,0.00,South,180,3.8,6.0,48,0.00,,,-99.99,Homeseer,2013-06-19 01:07:00,
2013-06-18 21:17:00,85.3,67.8,0.00,WSW,247,1.3,2.9,48,0.00,,,-99.99,Homeseer,2013-06-19 01:17:00,
2013-06-18 21:27:00,85.3,67.8,0.00,SSE,157,3.4,3.4,48,0.00,,,-99.99,Homeseer,2013-06-19 01:27:00,
2013-06-18 21:37:00,85.1,68.1,0.00,North,0,2.7,4.9,49,0.00,,,-99.99,Homeseer,2013-06-19 01:37:00,
2013-06-18 21:47:00,84.9,67.9,0.00,SSE,157,2.5,3.6,49,0.00,,,-99.99,Homeseer,2013-06-19 01:47:00,
2013-06-18 21:57:00,84.9,67.9,0.00,South,180,2.2,2.2,49,0.00,,,-99.99,Homeseer,2013-06-19 01:57:00,
2013-06-18 22:07:00,84.6,68.1,0.00,SSE,157,1.6,1.6,50,0.00,,,-99.99,Homeseer,2013-06-19 02:07:00,
2013-06-18 22:17:00,84.6,68.5,0.00,South,180,3.4,3.6,51,0.00,,,-99.99,Homeseer,2013-06-19 02:17:00,
2013-06-18 22:27:00,84.4,68.8,0.00,North,0,3.6,5.6,52,0.00,,,-99.99,Homeseer,2013-06-19 02:27:00,
2013-06-18 22:37:00,84.4,68.8,0.00,SSE,157,4.3,4.3,52,0.00,,,-99.99,Homeseer,2013-06-19 02:37:00,
2013-06-18 22:47:00,84.2,69.1,0.00,ENE,67,3.6,0.0,53,0.00,,,-99.99,Homeseer,2013-06-19 02:47:00,
2013-06-18 22:57:00,84.2,69.1,0.00,North,0,3.1,4.0,53,0.00,,,-99.99,Homeseer,2013-06-19 02:57:00,
2013-06-18 23:07:00,84.2,69.1,0.00,South,180,3.1,3.4,53,0.00,,,-99.99,Homeseer,2013-06-19 03:07:00,
2013-06-18 23:17:00,84.0,69.3,0.00,North,0,3.1,4.0,54,0.00,,,-99.99,Homeseer,2013-06-19 03:17:00,
2013-06-18 23:27:00,84.0,69.3,0.00,South,180,3.1,3.6,54,0.00,,,-99.99,Homeseer,2013-06-19 03:27:00,
2013-06-18 23:37:00,84.0,69.3,0.00,North,0,2.5,2.5,54,0.00,,,-99.99,Homeseer,2013-06-19 03:37:00,
2013-06-18 23:47:00,83.8,69.1,0.00,North,0,1.6,2.0,54,0.00,,,-99.99,Homeseer,2013-06-19 03:47:00,
2013-06-18 23:57:00,83.8,69.1,0.00,South,180,0.9,0.0,54,0.00,,,-99.99,Homeseer,2013-06-19 03:57:00,